Location: Cussy
(47.0410°N, 4.6412°E)
Time: 13:05:44
(UTC+00:00)

Cosmos 158 Rocket - Pass Details

Date: 30 November 2020
Orbit: 698 x 794 km, 74.0° (Epoch: 26 January)

Event Time Altitude Azimuth Distance (km) Brightness Sun altitude
Rises 17:56:14 0° 183° (S) 3,127 7.3 -20.1°
Reaches altitude 10° 17:58:39 10° 177° (S) 2,198 6.5 -20.5°
Enters shadow 18:03:13 46° 111° (ESE) 951 4.1 -21.2°
